• In Uzbekistan
  • List of Countries
  • For 7 days
  • Water Temperature
  • Satellite Maps
  • Weather Map
  • Weather Widgets
  • user-avatar
    Login

    Hourly Weather Kipungo

    Today, 22 November, Wednesday

    Time Temperature Precipitation Wind Pressure Humidity
    00:00 +22°C° 0 mm 1 mps 653 mmHg 56%
    01:00 +21°C° 0 mm 1 mps 653 mmHg 60%
    02:00 +21°C° 0 mm 1 mps 653 mmHg 60%
    03:00 +21°C° 0 mm 1 mps 653 mmHg 60%
    04:00 +21°C° 0 mm 1 mps 652 mmHg 60%
    05:00 +22°C° 0 mm 1 mps 653 mmHg 57%
    06:00 +23°C° 0 mm 1 mps 654 mmHg 53%
    07:00 +24°C° 0 mm 1 mps 654 mmHg 50%
    08:00 +27°C° 0 mm 1 mps 655 mmHg 41%
    09:00 +30°C° 0 mm 1 mps 655 mmHg 33%
    10:00 +34°C° 0 mm 2 mps 656 mmHg 24%
    11:00 +35°C° 0 mm 2 mps 656 mmHg 22%
    12:00 +36°C° 0 mm 2 mps 655 mmHg 19%
    13:00 +37°C° 0 mm 2 mps 655 mmHg 17%
    14:00 +36°C° 0 mm 2 mps 654 mmHg 18%
    15:00 +35°C° 0 mm 2 mps 653 mmHg 20%
    16:00 +33°C° 0 mm 1 mps 653 mmHg 21%
    17:00 +31°C° 0 mm 1 mps 652 mmHg 24%
    18:00 +29°C° 0 mm 1 mps 652 mmHg 28%
    19:00 +28°C° 0 mm 1 mps 652 mmHg 31%
    20:00 +27°C° 0 mm 1 mps 653 mmHg 35%
    21:00 +25°C° 0 mm 1 mps 653 mmHg 40%
    22:00 +24°C° 0 mm 1 mps 653 mmHg 44%
    23:00 +24°C° 0 mm 1 mps 653 mmHg 47%

    Tomorrow, 23 November, Thursday

    Time Temperature Precipitation Wind Pressure Humidity
    00:00 +23°C° 0 mm 1 mps 653 mmHg 50%
    01:00 +23°C° 0 mm 1 mps 652 mmHg 53%
    02:00 +22°C° 0 mm 1 mps 652 mmHg 55%
    03:00 +22°C° 0 mm 1 mps 652 mmHg 56%
    04:00 +21°C° 0 mm 1 mps 652 mmHg 58%
    05:00 +22°C° 0 mm 1 mps 652 mmHg 54%
    06:00 +23°C° 0 mm 1 mps 653 mmHg 51%
    07:00 +24°C° 0 mm 1 mps 653 mmHg 48%
    08:00 +28°C° 0 mm 1 mps 654 mmHg 40%
    09:00 +31°C° 0 mm 1 mps 655 mmHg 32%
    10:00 +35°C° 0 mm 1 mps 656 mmHg 24%
    11:00 +35°C° 0 mm 1 mps 655 mmHg 24%
    12:00 +35°C° 0 mm 1 mps 655 mmHg 23%
    13:00 +36°C° 0 mm 1 mps 654 mmHg 23%
    14:00 +34°C° 0 mm 1 mps 653 mmHg 26%
    15:00 +32°C° 0 mm 1 mps 653 mmHg 29%
    16:00 +31°C° 0 mm 2 mps 652 mmHg 32%
    17:00 +29°C° 0.1 mm 2 mps 652 mmHg 37%
    18:00 +28°C° 0.1 mm 2 mps 652 mmHg 41%
    19:00 +27°C° 0.1 mm 2 mps 653 mmHg 46%
    20:00 +26°C° 0.2 mm 2 mps 653 mmHg 50%
    21:00 +25°C° 0.2 mm 2 mps 653 mmHg 55%
    22:00 +24°C° 0.2 mm 2 mps 654 mmHg 60%
    23:00 +23°C° 0 mm 2 mps 653 mmHg 63%

    Day after tomorrow, 24 November, Friday

    Time Temperature Precipitation Wind Pressure Humidity
    00:00 +23°C° 0 mm 1 mps 653 mmHg 67%
    01:00 +22°C° 0 mm 1 mps 653 mmHg 70%
    02:00 +22°C° 0.2 mm 1 mps 653 mmHg 72%
    03:00 +22°C° 0.2 mm 1 mps 653 mmHg 74%
    04:00 +21°C° 0.2 mm 1 mps 652 mmHg 76%
    05:00 +22°C° 0 mm 1 mps 653 mmHg 74%
    06:00 +23°C° 0 mm 1 mps 653 mmHg 71%
    07:00 +23°C° 0 mm 1 mps 654 mmHg 69%
    08:00 +25°C° 0.2 mm 1 mps 654 mmHg 60%
    09:00 +28°C° 0.2 mm 1 mps 655 mmHg 51%
    10:00 +30°C° 0.2 mm 1 mps 656 mmHg 42%
    11:00 +31°C° 0 mm 1 mps 655 mmHg 38%
    12:00 +33°C° 0 mm 1 mps 655 mmHg 34%
    13:00 +34°C° 0 mm 1 mps 655 mmHg 29%
    14:00 +33°C° 0 mm 1 mps 654 mmHg 31%
    15:00 +32°C° 0 mm 1 mps 653 mmHg 32%
    16:00 +31°C° 0 mm 1 mps 652 mmHg 33%
    17:00 +29°C° 0 mm 2 mps 653 mmHg 38%
    18:00 +28°C° 0 mm 2 mps 653 mmHg 43%
    19:00 +26°C° 0 mm 3 mps 653 mmHg 48%
    20:00 +25°C° 0.1 mm 2 mps 653 mmHg 55%
    21:00 +24°C° 0.1 mm 2 mps 654 mmHg 61%
    22:00 +23°C° 0.1 mm 1 mps 654 mmHg 68%
    23:00 +23°C° 0 mm 2 mps 654 mmHg 71%

    25 November, Saturday

    Time Temperature Precipitation Wind Pressure Humidity
    00:00 +21°C° 0 mm 2 mps 653 mmHg 75%
    01:00 +21°C° 0 mm 2 mps 653 mmHg 78%
    02:00 +20°C° 0.1 mm 2 mps 653 mmHg 80%
    03:00 +21°C° 0.1 mm 1 mps 652 mmHg 83%
    04:00 +20°C° 0.1 mm 1 mps 652 mmHg 85%
    05:00 +21°C° 0 mm 1 mps 653 mmHg 81%
    06:00 +22°C° 0 mm 1 mps 653 mmHg 77%
    07:00 +22°C° 0 mm 1 mps 654 mmHg 74%
    08:00 +26°C° 0 mm 1 mps 654 mmHg 59%
    09:00 +29°C° 0 mm 1 mps 655 mmHg 45%
    10:00 +32°C° 0 mm 1 mps 656 mmHg 31%
    11:00 +34°C° 0 mm 1 mps 655 mmHg 29%
    12:00 +35°C° 0 mm 1 mps 655 mmHg 26%
    13:00 +36°C° 0 mm 1 mps 654 mmHg 24%
    14:00 +34°C° 0 mm 1 mps 654 mmHg 26%
    15:00 +34°C° 0 mm 2 mps 653 mmHg 29%
    16:00 +31°C° 0 mm 2 mps 652 mmHg 31%
    17:00 +30°C° 0 mm 2 mps 652 mmHg 37%
    18:00 +28°C° 0 mm 3 mps 653 mmHg 43%
    19:00 +27°C° 0 mm 3 mps 653 mmHg 48%
    20:00 +26°C° 0 mm 3 mps 653 mmHg 55%
    21:00 +24°C° 0 mm 3 mps 653 mmHg 62%
    22:00 +22°C° 0 mm 3 mps 654 mmHg 70%
    23:00 +21°C° 0 mm 3 mps 653 mmHg 73%

    26 November, Sunday

    Time Temperature Precipitation Wind Pressure Humidity
    00:00 +21°C° 0 mm 2 mps 653 mmHg 77%
    01:00 +20°C° 0 mm 2 mps 652 mmHg 80%
    02:00 +20°C° 0 mm 2 mps 652 mmHg 81%
    03:00 +20°C° 0 mm 2 mps 652 mmHg 82%
    04:00 +19°C° 0 mm 2 mps 652 mmHg 82%
    05:00 +20°C° 0 mm 2 mps 653 mmHg 78%
    06:00 +21°C° 0 mm 2 mps 653 mmHg 75%
    07:00 +22°C° 0 mm 1 mps 654 mmHg 71%
    08:00 +26°C° 0 mm 1 mps 654 mmHg 58%
    09:00 +29°C° 0 mm 1 mps 655 mmHg 45%
    10:00 +32°C° 0 mm 1 mps 656 mmHg 32%
    11:00 +35°C° 0 mm 2 mps 655 mmHg 29%
    12:00 +36°C° 0 mm 2 mps 655 mmHg 25%
    13:00 +37°C° 0 mm 2 mps 654 mmHg 22%
    14:00 +36°C° 0 mm 2 mps 654 mmHg 25%
    15:00 +34°C° 0 mm 2 mps 653 mmHg 28%
    16:00 +32°C° 0 mm 2 mps 653 mmHg 30%
    17:00 +30°C° 0 mm 2 mps 653 mmHg 41%
    18:00 +28°C° 0 mm 3 mps 653 mmHg 51%
    19:00 +25°C° 0 mm 4 mps 653 mmHg 62%
    20:00 +23°C° 0 mm 4 mps 653 mmHg 67%
    21:00 +22°C° 0 mm 4 mps 654 mmHg 73%
    22:00 +21°C° 0 mm 3 mps 654 mmHg 79%
    23:00 +21°C° 0 mm 3 mps 654 mmHg 80%

    27 November, Monday

    Time Temperature Precipitation Wind Pressure Humidity
    00:00 +20°C° 0 mm 2 mps 653 mmHg 82%
    01:00 +20°C° 0 mm 2 mps 653 mmHg 83%
    02:00 +20°C° 0 mm 2 mps 653 mmHg 84%
    03:00 +19°C° 0 mm 2 mps 653 mmHg 85%
    04:00 +20°C° 0 mm 1 mps 653 mmHg 87%
    05:00 +21°C° 0 mm 1 mps 653 mmHg 84%
    06:00 +21°C° 0 mm 1 mps 654 mmHg 81%
    07:00 +21°C° 0 mm 2 mps 654 mmHg 78%
    08:00 +24°C° 0 mm 2 mps 655 mmHg 67%
    09:00 +27°C° 0 mm 2 mps 655 mmHg 57%
    10:00 +29°C° 0 mm 2 mps 656 mmHg 46%
    11:00 +31°C° 0.1 mm 1 mps 656 mmHg 41%
    12:00 +33°C° 0.1 mm 1 mps 655 mmHg 36%
    13:00 +35°C° 0.1 mm 1 mps 655 mmHg 31%
    14:00 +34°C° 0.1 mm 1 mps 655 mmHg 33%
    15:00 +32°C° 0.1 mm 2 mps 654 mmHg 35%
    16:00 +31°C° 0.1 mm 2 mps 653 mmHg 37%
    17:00 +29°C° 0.4 mm 3 mps 653 mmHg 46%
    18:00 +27°C° 0.4 mm 3 mps 653 mmHg 54%
    19:00 +25°C° 0.4 mm 3 mps 653 mmHg 63%
    20:00 +24°C° 0.2 mm 3 mps 654 mmHg 68%
    21:00 +22°C° 0.2 mm 3 mps 654 mmHg 74%
    22:00 +21°C° 0.2 mm 3 mps 654 mmHg 79%
    23:00 +21°C° 0 mm 2 mps 654 mmHg 81%
    Show more